Regional Weather Roundup
Issued by NWS Northern Indiana

Home | Current Version | Previous Version | Graphics & Text | Print | Product List | Glossary On
Versions: 1 2 3 4 5 6 7 8 9 10 11 12 13 14 15 16 17 18 19 20 21 22 23 24 25 26 27 28 29 30 31 32 33 34 35 36 37 38 39 40 41 42 43 44 45 46 47 48 49 50
000
ASUS43 KIWX 272110
RWRIWX

KIWX WEATHER ROUNDUP
NATIONAL WEATHER SERVICE NORTHERN INDIANA
500 PM EDT SAT AUG 27 2016

NOTE: "FAIR" INDICATES FEW OR NO CLOUDS BELOW 12,000 FEET WITH NO
SIGNIFICANT WEATHER AND/OR OBSTRUCTIONS TO VISIBILITY.

* THESE STATIONS ARE NOT UNDER NWS QUALITY CONTROL. THEY ALSO MAY NOT
  REPORT WEATHER SUCH AS PRECIPITATION OR FOG.

INZ001>027-272200-
NORTHERN INDIANA

CITY           SKY/WX    TMP DP  RH WIND       PRES   REMARKS
GARY*          PTSUNNY   86  72  62 SW9       30.02F
VALPARAISO     MOSUNNY   84  72  67 S8        30.04S
MICHIGAN CITY* PTSUNNY   82  72  69 MISG      30.04S
LAPORTE*       MOSUNNY   85  75  72 SW9       30.05S
KNOX*          PTSUNNY   82  50  32 S10       30.04S
SOUTH BEND     MOSUNNY   82  72  71 S10       30.05F
ELKHART*       MOSUNNY   82  72  69 S7        30.05F
GOSHEN         CLOUDY    82  70  66 S9        30.05F
MONTICELLO*    MOSUNNY   84  68  58 S8        30.05S
LOGANSPORT*    PTSUNNY   82  70  65 SW8       30.06F
ROCHESTER*     PTSUNNY   82  73  74 S7        30.06F
WARSAW*        PTSUNNY   79  73  83 S3        30.06F
ANGOLA*        SUNNY     79  73  83 S6        30.07S
FORT WAYNE     CLOUDY    79  71  76 S9        30.07F
HUNTINGTON*    CLOUDY    80  73  79 S6        30.06F
PERU/GRISSOM   MOSUNNY   83  73  69 SW7       30.05F
MARION*        CLOUDY    81  71  71 S6        30.08S HAZE

$$
INZ028>050-272200-
CENTRAL INDIANA

CITY           SKY/WX    TMP DP  RH WIND       PRES   REMARKS
LAFAYETTE      PTSUNNY   85  73  67 S7        30.04F
KOKOMO*        MOSUNNY   84  73  70 SW7       30.06F
MUNCIE*        CLOUDY    81  72  74 VRB5      30.08F
INDIANAPOLIS   MOSUNNY   82  72  71 VRB5      30.07F

$$
MIZ043>046-050>051-056>058-064>065-071>073-077>080-272200-
SOUTHWEST LOWER MICHIGAN

CITY           SKY/WX    TMP DP  RH WIND       PRES   REMARKS
BATTLE CREEK   PTSUNNY   78  72  81 S8        30.06F
BENTON HARBOR  PTSUNNY   83  71  67 VRB6      30.03F
COLDWATER*     CLOUDY    79  72  79 S3        30.07F
HILLSDALE*     CLOUDY    76  70  83 SE7       30.08F
HOLLAND        CLOUDY    82  69  64 SW15      30.05S
GRAND RAPIDS   PTSUNNY   77  68  73 SE5       30.06S
KALAMAZOO      MOSUNNY   80  70  71 S9        30.05F
STURGIS*       MOSUNNY   82  72  71 S9        30.05F
THREE RIVERS*  PTSUNNY   81  72  74 S7        30.05F

$$
OHZ001>008-015>018-024>025-272200-
NORTHWEST OHIO

CITY           SKY/WX    TMP DP  RH WIND       PRES   REMARKS
WAUSEON*       FAIR      75  72  88 E7        30.09S
DEFIANCE       CLOUDY    79  70  74 E5        30.08F
FINDLAY        CLOUDY    78  69  73 N5        30.10R
TOLEDO EXPRESS MOSUNNY   73  73 100 E8        30.09F
TOLEDO METCALF CLOUDY    75  73  93 E7        30.11F
LIMA           LGT RAIN  75  73  93 SE7       30.10S

$$
AND FOR LAKE MICHIGAN COASTAL AND OPEN LAKE BUOY OBSERVATIONS

STATION/POSITION TEMP    WIND        PRES    VSBY  WAVE
                 AIR SEA DIR/SP/G                  HT/PER
                 (F)     (DEG/KT/KT) (MB)    (MI)  (FT/S)
CALUMET HARBOR    82     200/  7/  9 1016.1F
MICHIGAN CITY     81     160/ 13/ 14   N/A
BURNS HARBOR      83     190/ 10/ 15 1017.3F
SAINT JOSEPH      85      CALM  /  1 1018.3S
SOUTH LAKE BUOY   75 75  170/ 12/ 16 1015.9F         2/ 4
4 MI NW BRIDGMAN  78 76  260/  2/  2 1016.5F         1
MICHIGAN CITY     80 76  220/  4/  6   N/A           1

$$
&&




USA.gov is the U.S. government's official web portal to all federal, state and local government web resources and services.